| time (UTC) | temp F | wind direction | speed knots | gust knots | rain 1hr in | rain 24hr in | rain mn in | humidity % | barometer mb |
| 20260506191539 | 77 | 120 | 0.9 | 8.7 | 0.00 | 0.00 | 0.00 | 26 | 1013.5 |
| 20260506191025 | 77 | 315 | 1.7 | 8.7 | 0.00 | 0.00 | 0.00 | 25 | 1013.5 |
| 20260506190525 | 77 | 323 | 4.3 | 9.6 | 0.00 | 0.00 | 0.00 | 25 | 1013.5 |
| 20260506190039 | 77 | 298 | 2.6 | 9.6 | 0.00 | 0.00 | 0.00 | 25 | 1013.5 |
| 20260506185524 | 77 | 328 | 1.7 | 8.7 | 0.00 | 0.00 | 0.00 | 25 | 1013.6 |
| 20260506185025 | 78 | 325 | 2.6 | 6.1 | 0.00 | 0.00 | 0.00 | 26 | 1013.6 |
| 20260506184544 | 78 | 26 | 1.7 | 6.1 | 0.00 | 0.00 | 0.00 | 25 | 1013.7 |
| 20260506184027 | 77 | 188 | 1.7 | 7.0 | 0.00 | 0.00 | 0.00 | 27 | 1013.9 |
| 20260506183527 | 78 | 331 | 2.6 | 9.6 | 0.00 | 0.00 | 0.00 | 27 | 1014.0 |
| 20260506183042 | 77 | 167 | 3.5 | 10.4 | 0.00 | 0.00 | 0.00 | 27 | 1014.0 |
| 20260506182524 | 78 | 183 | 5.2 | 10.4 | 0.00 | 0.00 | 0.00 | 27 | 1014.1 |
| 20260506182026 | 77 | 196 | 3.5 | 8.7 | 0.00 | 0.00 | 0.00 | 27 | 1014.3 |
| 20260506181554 | 76 | 216 | 2.6 | 8.7 | 0.00 | 0.00 | 0.00 | 29 | 1014.2 |
| 20260506181025 | 76 | 205 | 1.7 | 7.8 | 0.00 | 0.00 | 0.00 | 29 | 1014.4 |
| 20260506180526 | 74 | 257 | 2.6 | 8.7 | 0.00 | 0.00 | 0.00 | 30 | 1014.2 |
| 20260506180037 | 75 | 324 | 4.3 | 8.7 | 0.00 | 0.00 | 0.00 | 30 | 1014.3 |
| 20260506175527 | 75 | 289 | 1.7 | 7.0 | 0.00 | 0.00 | 0.00 | 30 | 1014.3 |
| 20260506175025 | 75 | 0 | 1.7 | 7.0 | 0.00 | 0.00 | 0.00 | 30 | 1014.3 |
| 20260506174538 | 75 | 220 | 1.7 | 7.0 | 0.00 | 0.00 | 0.00 | 31 | 1014.3 |
| 20260506174025 | 75 | 45 | 0.9 | 6.1 | 0.00 | 0.00 | 0.00 | 31 | 1014.3 |
| 20260506173525 | 75 | 314 | 1.7 | 6.1 | 0.00 | 0.00 | 0.00 | 31 | 1014.3 |
| 20260506173105 | 74 | 298 | 1.7 | 4.3 | 0.00 | 0.00 | 0.00 | 31 | 1014.3 |
| 20260506172526 | 74 | 327 | 0.9 | 5.2 | 0.00 | 0.00 | 0.00 | 31 | 1014.2 |
| 20260506172024 | 73 | 300 | 0.0 | 5.2 | 0.00 | 0.00 | 0.00 | 32 | 1014.2 |
| 20260506171546 | 73 | 5 | 0.9 | 4.3 | 0.00 | 0.00 | 0.00 | 32 | 1014.2 |
| 20260506171025 | 73 | 344 | 0.9 | 5.2 | 0.00 | 0.00 | 0.00 | 32 | 1014.2 |
| 20260506170525 | 73 | 305 | 0.9 | 5.2 | 0.00 | 0.00 | 0.00 | 32 | 1014.2 |
| 20260506170044 | 74 | 324 | 0.9 | 6.1 | 0.00 | 0.00 | 0.00 | 31 | 1014.2 |
| 20260506165525 | 74 | 159 | 1.7 | 6.1 | 0.00 | 0.00 | 0.00 | 31 | 1014.2 |
| 20260506165025 | 73 | 201 | 0.0 | 4.3 | 0.00 | 0.00 | 0.00 | 32 | 1014.2 |
| 20260506164539 | 73 | 198 | 0.9 | 4.3 | 0.00 | 0.00 | 0.00 | 32 | 1014.2 |
| 20260506164024 | 72 | 181 | 0.9 | 6.1 | 0.00 | 0.00 | 0.00 | 32 | 1014.1 |
| 20260506163524 | 72 | 0 | 1.7 | 7.0 | 0.00 | 0.00 | 0.00 | 32 | 1014.1 |
| 20260506163039 | 72 | 227 | 2.6 | 7.0 | 0.00 | 0.00 | 0.00 | 33 | 1014.1 |
| 20260506162525 | 71 | 213 | 0.0 | 3.5 | 0.00 | 0.00 | 0.00 | 33 | 1014.1 |
| 20260506162024 | 72 | 312 | 0.9 | 3.5 | 0.00 | 0.00 | 0.00 | 33 | 1014.1 |
| 20260506161539 | 72 | 327 | 0.9 | 3.5 | 0.00 | 0.00 | 0.00 | 32 | 1014.0 |
| 20260506161025 | 72 | 0 | 0.0 | 4.3 | 0.00 | 0.00 | 0.00 | 33 | 1014.0 |
| 20260506160524 | 72 | 147 | 0.9 | 4.3 | 0.00 | 0.00 | 0.00 | 33 | 1014.0 |
| 20260506160054 | 71 | 171 | 0.9 | 4.3 | 0.00 | 0.00 | 0.00 | 34 | 1014.0 |
| 20260506155524 | 71 | 48 | 0.9 | 4.3 | 0.00 | 0.00 | 0.00 | 34 | 1014.0 |
| 20260506155024 | 70 | 136 | 0.9 | 3.5 | 0.00 | 0.00 | 0.00 | 35 | 1014.1 |
| 20260506154544 | 69 | 0 | 0.0 | 2.6 | 0.00 | 0.00 | 0.00 | 35 | 1014.1 |
| 20260506154025 | 69 | 200 | 0.9 | 3.5 | 0.00 | 0.00 | 0.00 | 36 | 1014.1 |
| 20260506153523 | 68 | 0 | 0.9 | 3.5 | 0.00 | 0.00 | 0.00 | 37 | 1014.1 |
| 20260506153039 | 68 | 336 | 0.9 | 2.6 | 0.00 | 0.00 | 0.00 | 37 | 1014.0 |
| 20260506152524 | 68 | 302 | 0.9 | 3.5 | 0.00 | 0.00 | 0.00 | 38 | 1014.0 |
| 20260506152028 | 67 | 328 | 0.0 | 3.5 | 0.00 | 0.00 | 0.00 | 38 | 1014.0 |
| 20260506151539 | 67 | 317 | 0.9 | 3.5 | 0.00 | 0.00 | 0.00 | 38 | 1014.1 |
| 20260506151024 | 67 | 329 | 0.9 | 3.5 | 0.00 | 0.00 | 0.00 | 39 | 1014.0 |
| 20260506150524 | 66 | 0 | 0.0 | 3.5 | 0.00 | 0.00 | 0.00 | 40 | 1014.0 |
| 20260506150038 | 66 | 255 | 0.0 | 2.6 | 0.00 | 0.00 | 0.00 | 41 | 1014.0 |
| 20260506145525 | 65 | 0 | 0.0 | 2.6 | 0.00 | 0.00 | 0.00 | 41 | 1013.9 |
| 20260506145025 | 65 | 304 | 0.0 | 2.6 | 0.00 | 0.00 | 0.00 | 41 | 1013.9 |
| 20260506144545 | 65 | 327 | 0.0 | 2.6 | 0.00 | 0.00 | 0.00 | 41 | 1013.8 |
| 20260506144024 | 65 | 94 | 0.0 | 1.7 | 0.00 | 0.00 | 0.00 | 41 | 1013.9 |
| 20260506143525 | 65 | 0 | 0.0 | 0.9 | 0.00 | 0.00 | 0.00 | 41 | 1013.8 |
| 20260506143039 | 65 | 0 | 0.0 | 1.7 | 0.00 | 0.00 | 0.00 | 41 | 1013.8 |
| 20260506142525 | 64 | 0 | 0.0 | 1.7 | 0.00 | 0.00 | 0.00 | 43 | 1013.8 |
| 20260506142025 | 64 | 0 | 0.0 | 1.7 | 0.00 | 0.00 | 0.00 | 44 | 1013.7 |
| 20260506141540 | 63 | 101 | 0.0 | 1.7 | 0.00 | 0.00 | 0.00 | 45 | 1013.7 |
| 20260506141027 | 62 | 0 | 0.0 | 0.9 | 0.00 | 0.00 | 0.00 | 46 | 1013.5 |
| 20260506140525 | 61 | 0 | 0.0 | 1.7 | 0.00 | 0.00 | 0.00 | 46 | 1013.5 |
| 20260506140039 | 61 | 0 | 0.0 | 2.6 | 0.00 | 0.00 | 0.00 | 47 | 1013.5 |
| 20260506135525 | 60 | 155 | 0.0 | 4.3 | 0.00 | 0.00 | 0.00 | 47 | 1013.3 |
| 20260506135024 | 60 | 154 | 0.0 | 4.3 | 0.00 | 0.00 | 0.00 | 48 | 1013.4 |
| 20260506134538 | 59 | 154 | 1.7 | 3.5 | 0.00 | 0.00 | 0.00 | 48 | 1013.4 |
| 20260506134024 | 59 | 155 | 0.0 | 1.7 | 0.00 | 0.00 | 0.00 | 50 | 1013.3 |
| 20260506133527 | 59 | 0 | 0.0 | 1.7 | 0.00 | 0.00 | 0.00 | 49 | 1013.3 |
| 20260506133041 | 58 | 0 | 0.0 | 1.7 | 0.00 | 0.00 | 0.00 | 50 | 1013.3 |
| 20260506132525 | 58 | 0 | 0.0 | 1.7 | 0.00 | 0.00 | 0.00 | 50 | 1013.2 |
| 20260506132024 | 57 | 0 | 0.0 | 1.7 | 0.00 | 0.00 | 0.00 | 51 | 1013.2 |
| 20260506131604 | 57 | 0 | 0.0 | 2.6 | 0.00 | 0.00 | 0.00 | 51 | 1013.2 |
| 20260506131025 | 57 | 0 | 0.9 | 2.6 | 0.00 | 0.00 | 0.00 | 51 | 1013.2 |
| 20260506130527 | 56 | 0 | 0.0 | 4.3 | 0.00 | 0.00 | 0.00 | 52 | 1013.1 |
| 20260506130043 | 56 | 154 | 0.9 | 4.3 | 0.00 | 0.00 | 0.00 | 52 | 1013.0 |
| 20260506125525 | 55 | 154 | 1.7 | 4.3 | 0.00 | 0.00 | 0.00 | 52 | 1013.0 |
| 20260506125025 | 55 | 154 | 1.7 | 4.3 | 0.00 | 0.00 | 0.00 | 53 | 1012.8 |
| 20260506124538 | 55 | 160 | 2.6 | 4.3 | 0.00 | 0.00 | 0.00 | 53 | 1012.8 |
| 20260506124024 | 55 | 146 | 1.7 | 3.5 | 0.00 | 0.00 | 0.00 | 53 | 1012.8 |
| 20260506123526 | 55 | 146 | 0.9 | 3.5 | 0.00 | 0.00 | 0.00 | 53 | 1012.7 |
| 20260506123038 | 55 | 146 | 0.9 | 4.3 | 0.00 | 0.00 | 0.00 | 53 | 1012.7 |
| 20260506122524 | 55 | 146 | 0.9 | 5.2 | 0.00 | 0.00 | 0.00 | 53 | 1012.4 |
| 20260506122025 | 55 | 146 | 1.7 | 5.2 | 0.00 | 0.00 | 0.00 | 52 | 1012.5 |
| 20260506121543 | 55 | 165 | 1.7 | 4.3 | 0.00 | 0.00 | 0.00 | 53 | 1012.4 |
| 20260506121025 | 55 | 157 | 1.7 | 4.3 | 0.00 | 0.00 | 0.00 | 52 | 1012.3 |
| 20260506120527 | 55 | 148 | 2.6 | 4.3 | 0.00 | 0.00 | 0.00 | 52 | 1012.3 |
| 20260506120040 | 56 | 142 | 0.9 | 4.3 | 0.00 | 0.00 | 0.00 | 53 | 1012.3 |
| 20260506115525 | 56 | 142 | 1.7 | 4.3 | 0.00 | 0.00 | 0.00 | 52 | 1012.2 |
| 20260506115024 | 56 | 159 | 1.7 | 3.5 | 0.00 | 0.00 | 0.00 | 53 | 1012.2 |
| 20260506114539 | 56 | 157 | 0.9 | 2.6 | 0.00 | 0.00 | 0.00 | 53 | 1012.2 |
| 20260506114026 | 56 | 157 | 0.9 | 2.6 | 0.00 | 0.00 | 0.00 | 53 | 1012.2 |
| 20260506113525 | 56 | 157 | 0.9 | 2.6 | 0.00 | 0.00 | 0.00 | 54 | 1012.2 |
| 20260506113039 | 56 | 157 | 0.9 | 2.6 | 0.00 | 0.00 | 0.00 | 53 | 1012.2 |
| 20260506112524 | 56 | 0 | 0.0 | 1.7 | 0.00 | 0.00 | 0.00 | 54 | 1012.1 |
| 20260506112024 | 56 | 157 | 0.9 | 1.7 | 0.00 | 0.00 | 0.00 | 53 | 1012.1 |
| 20260506111538 | 57 | 0 | 0.9 | 1.7 | 0.00 | 0.00 | 0.00 | 53 | 1012.1 |
| 20260506111028 | 57 | 157 | 0.0 | 2.6 | 0.00 | 0.00 | 0.00 | 53 | 1012.1 |
| 20260506110527 | 57 | 157 | 0.9 | 2.6 | 0.00 | 0.00 | 0.00 | 52 | 1012.1 |
| 20260506110042 | 57 | 0 | 0.0 | 2.6 | 0.00 | 0.00 | 0.00 | 52 | 1012.0 |
| 20260506105524 | 57 | 157 | 0.0 | 4.3 | 0.00 | 0.00 | 0.00 | 53 | 1012.2 |
| 20260506105027 | 57 | 157 | 0.9 | 6.1 | 0.00 | 0.00 | 0.00 | 53 | 1012.1 |
| 20260506104546 | 57 | 157 | 2.6 | 6.1 | 0.00 | 0.00 | 0.00 | 54 | 1012.0 |
| 20260506104022 | 57 | 152 | 0.0 | 2.6 | 0.00 | 0.00 | 0.00 | 55 | 1012.0 |
| 20260506103524 | 57 | 0 | 0.0 | 4.3 | 0.00 | 0.00 | 0.00 | 56 | 1012.0 |
| 20260506103041 | 57 | 152 | 0.9 | 4.3 | 0.00 | 0.00 | 0.00 | 55 | 1011.9 |
| 20260506102525 | 57 | 152 | 1.7 | 3.5 | 0.00 | 0.00 | 0.00 | 56 | 1011.9 |
| 20260506102025 | 57 | 0 | 0.0 | 4.3 | 0.00 | 0.00 | 0.00 | 56 | 1011.9 |
| 20260506101539 | 58 | 194 | 0.9 | 4.3 | 0.00 | 0.00 | 0.00 | 55 | 1011.9 |
| 20260506101024 | 58 | 171 | 2.6 | 4.3 | 0.00 | 0.00 | 0.00 | 55 | 1011.8 |
| 20260506100525 | 57 | 119 | 0.9 | 2.6 | 0.00 | 0.00 | 0.00 | 55 | 1011.8 |
| 20260506100040 | 58 | 119 | 0.9 | 2.6 | 0.00 | 0.00 | 0.00 | 55 | 1011.8 |
| 20260506095524 | 58 | 0 | 0.0 | 2.6 | 0.00 | 0.00 | 0.00 | 54 | 1011.9 |
| 20260506095024 | 58 | 0 | 0.9 | 2.6 | 0.00 | 0.00 | 0.00 | 54 | 1011.8 |
| 20260506094554 | 58 | 0 | 0.9 | 2.6 | 0.00 | 0.00 | 0.00 | 54 | 1011.8 |
| 20260506094028 | 58 | 119 | 0.9 | 2.6 | 0.00 | 0.00 | 0.00 | 54 | 1011.8 |
| 20260506093524 | 58 | 119 | 0.9 | 2.6 | 0.00 | 0.00 | 0.00 | 54 | 1011.7 |
| 20260506093040 | 58 | 0 | 0.0 | 2.6 | 0.00 | 0.00 | 0.00 | 54 | 1011.7 |
| 20260506092525 | 58 | 119 | 0.9 | 2.6 | 0.00 | 0.00 | 0.00 | 53 | 1011.6 |
| 20260506092028 | 58 | 0 | 0.0 | 1.7 | 0.00 | 0.00 | 0.00 | 53 | 1011.6 |
| 20260506091540 | 58 | 0 | 0.0 | 2.6 | 0.00 | 0.00 | 0.00 | 53 | 1011.5 |
| 20260506091025 | 59 | 119 | 0.0 | 2.6 | 0.00 | 0.00 | 0.00 | 53 | 1011.5 |
| 20260506090524 | 59 | 119 | 1.7 | 2.6 | 0.00 | 0.00 | 0.00 | 53 | 1011.5 |
| 20260506090039 | 59 | 0 | 0.0 | 2.6 | 0.00 | 0.00 | 0.00 | 54 | 1011.5 |
| 20260506085524 | 59 | 119 | 0.9 | 2.6 | 0.00 | 0.05 | 0.00 | 53 | 1011.4 |
| 20260506085024 | 59 | 0 | 0.0 | 1.7 | 0.00 | 0.05 | 0.00 | 53 | 1011.4 |
| 20260506084542 | 59 | 0 | 0.0 | 1.7 | 0.00 | 0.05 | 0.00 | 53 | 1011.4 |
| 20260506084024 | 59 | 119 | 0.0 | 1.7 | 0.00 | 0.05 | 0.00 | 52 | 1011.4 |
| 20260506083524 | 60 | 0 | 0.0 | 1.7 | 0.00 | 0.05 | 0.00 | 52 | 1011.4 |
| 20260506083042 | 60 | 119 | 0.0 | 0.9 | 0.00 | 0.05 | 0.00 | 52 | 1011.3 |
| 20260506082527 | 60 | 0 | 0.0 | 0.9 | 0.00 | 0.05 | 0.00 | 52 | 1011.4 |
| 20260506082027 | 60 | 0 | 0.0 | 0.0 | 0.00 | 0.05 | 0.00 | 51 | 1011.4 |
| 20260506081540 | 60 | 0 | 0.0 | 1.7 | 0.00 | 0.05 | 0.00 | 51 | 1011.5 |
| 20260506081025 | 60 | 0 | 0.0 | 1.7 | 0.00 | 0.05 | 0.00 | 50 | 1011.5 |
| 20260506080525 | 60 | 0 | 0.0 | 0.9 | 0.00 | 0.05 | 0.00 | 49 | 1011.4 |
| 20260506073525 | 61 | 0 | 0.0 | 1.7 | 0.00 | 0.07 | 0.00 | 46 | 1011.5 |
| 20260506073040 | 62 | 0 | 0.0 | 1.7 | 0.00 | 0.07 | 0.00 | 46 | 1011.5 |
| 20260506072529 | 62 | 119 | 0.9 | 1.7 | 0.00 | 0.07 | 0.00 | 45 | 1011.5 |
| 20260506072024 | 62 | 119 | 0.0 | 1.7 | 0.00 | 0.07 | 0.00 | 45 | 1011.5 |
| 20260506071547 | 62 | 119 | 0.9 | 1.7 | 0.00 | 0.07 | 0.00 | 46 | 1011.3 |
| 20260506071024 | 62 | 0 | 0.0 | 1.7 | 0.00 | 0.07 | 0.00 | 46 | 1011.3 |
| 20260506070524 | 62 | 119 | 0.9 | 2.6 | 0.00 | 0.07 | 0.00 | 45 | 1011.3 |
| 20260506062025 | 64 | 225 | 0.9 | 2.6 | 0.00 | 0.07 | 0.07 | 41 | 1011.1 |
| 20260506061539 | 64 | 252 | 0.0 | 1.7 | 0.00 | 0.07 | 0.07 | 41 | 1011.1 |
| 20260506061027 | 65 | 252 | 0.9 | 1.7 | 0.00 | 0.07 | 0.07 | 41 | 1011.0 |
| 20260506060527 | 65 | 276 | 0.0 | 1.7 | 0.00 | 0.07 | 0.07 | 40 | 1010.9 |
| 20260506051026 | 67 | 285 | 0.9 | 3.5 | 0.00 | 0.07 | 0.07 | 35 | 1010.8 |
| 20260506050525 | 67 | 279 | 1.7 | 3.5 | 0.00 | 0.07 | 0.07 | 34 | 1010.7 |
| 20260506045025 | 68 | 282 | 1.7 | 3.5 | 0.00 | 0.07 | 0.07 | 33 | 1010.4 |
| 20260506044542 | 68 | 252 | 0.9 | 3.5 | 0.00 | 0.07 | 0.07 | 33 | 1010.4 |
| 20260506044025 | 68 | 276 | 0.9 | 3.5 | 0.00 | 0.07 | 0.07 | 32 | 1010.4 |
| 20260506043525 | 68 | 280 | 1.7 | 3.5 | 0.00 | 0.07 | 0.07 | 32 | 1010.4 |
| 20260506043040 | 68 | 290 | 1.7 | 3.5 | 0.00 | 0.07 | 0.07 | 32 | 1010.3 |
| 20260506042525 | 68 | 281 | 1.7 | 3.5 | 0.00 | 0.07 | 0.07 | 32 | 1010.4 |
| 20260506042025 | 69 | 288 | 1.7 | 3.5 | 0.00 | 0.07 | 0.07 | 32 | 1010.2 |
| 20260506041541 | 69 | 278 | 0.9 | 3.5 | 0.00 | 0.07 | 0.07 | 31 | 1010.2 |
| 20260506041025 | 69 | 289 | 1.7 | 3.5 | 0.00 | 0.07 | 0.07 | 31 | 1010.2 |
| 20260506040524 | 69 | 288 | 0.9 | 2.6 | 0.00 | 0.07 | 0.07 | 31 | 1010.1 |
| 20260506040041 | 69 | 288 | 0.9 | 5.2 | 0.00 | 0.07 | 0.07 | 30 | 1010.0 |
| 20260506035525 | 70 | 312 | 0.9 | 5.2 | 0.00 | 0.07 | 0.07 | 30 | 1009.9 |
| 20260506035023 | 70 | 277 | 1.7 | 6.1 | 0.00 | 0.07 | 0.07 | 30 | 1009.8 |
| 20260506034539 | 70 | 275 | 1.7 | 7.8 | 0.00 | 0.07 | 0.07 | 30 | 1009.8 |
| 20260506034025 | 70 | 296 | 2.6 | 7.8 | 0.00 | 0.07 | 0.07 | 29 | 1009.7 |
| 20260506033525 | 70 | 296 | 3.5 | 7.0 | 0.00 | 0.07 | 0.07 | 29 | 1009.7 |
| 20260506033043 | 70 | 310 | 2.6 | 7.8 | 0.00 | 0.07 | 0.07 | 29 | 1009.5 |
| 20260506032524 | 70 | 0 | 3.5 | 7.8 | 0.00 | 0.07 | 0.07 | 29 | 1009.5 |
| 20260506032025 | 70 | 299 | 2.6 | 5.2 | 0.00 | 0.07 | 0.07 | 29 | 1009.5 |
| 20260506031546 | 71 | 299 | 2.6 | 8.7 | 0.00 | 0.07 | 0.07 | 29 | 1009.3 |
| 20260506031025 | 71 | 300 | 2.6 | 8.7 | 0.00 | 0.07 | 0.07 | 29 | 1009.3 |
| 20260506030524 | 71 | 302 | 4.3 | 8.7 | 0.00 | 0.07 | 0.07 | 28 | 1009.1 |
| 20260506030040 | 71 | 290 | 2.6 | 8.7 | 0.00 | 0.07 | 0.07 | 28 | 1009.1 |
| 20260506025526 | 71 | 285 | 4.3 | 8.7 | 0.00 | 0.07 | 0.07 | 28 | 1009.0 |
| 20260506025028 | 71 | 285 | 3.5 | 7.8 | 0.00 | 0.07 | 0.07 | 28 | 1009.0 |
| 20260506024547 | 71 | 317 | 3.5 | 9.6 | 0.00 | 0.07 | 0.07 | 28 | 1008.9 |
| 20260506024024 | 72 | 278 | 4.3 | 9.6 | 0.00 | 0.07 | 0.07 | 27 | 1008.8 |
| 20260506023524 | 72 | 275 | 2.6 | 8.7 | 0.00 | 0.07 | 0.07 | 27 | 1008.8 |
| 20260506023044 | 72 | 281 | 3.5 | 8.7 | 0.00 | 0.07 | 0.07 | 27 | 1008.8 |
| 20260506022530 | 72 | 273 | 3.5 | 10.4 | 0.00 | 0.07 | 0.07 | 27 | 1008.7 |
| 20260506022025 | 72 | 272 | 5.2 | 10.4 | 0.00 | 0.07 | 0.07 | 26 | 1008.5 |
| 20260506021541 | 72 | 283 | 5.2 | 10.4 | 0.00 | 0.07 | 0.07 | 26 | 1008.5 |
| 20260506021026 | 73 | 288 | 6.1 | 11.3 | 0.00 | 0.07 | 0.07 | 26 | 1008.5 |
| 20260506020525 | 73 | 290 | 5.2 | 11.3 | 0.00 | 0.07 | 0.07 | 27 | 1008.3 |
| 20260506020039 | 73 | 309 | 4.3 | 9.6 | 0.00 | 0.07 | 0.07 | 26 | 1008.2 |
| 20260506015527 | 73 | 311 | 5.2 | 9.6 | 0.00 | 0.07 | 0.07 | 26 | 1008.2 |
| 20260506015025 | 74 | 284 | 4.3 | 9.6 | 0.00 | 0.07 | 0.07 | 26 | 1008.1 |
| 20260506014542 | 74 | 239 | 3.5 | 12.2 | 0.00 | 0.07 | 0.07 | 26 | 1008.2 |
| 20260506014024 | 74 | 263 | 4.3 | 12.2 | 0.00 | 0.07 | 0.07 | 26 | 1008.2 |
| 20260506013527 | 74 | 248 | 3.5 | 12.2 | 0.00 | 0.07 | 0.07 | 26 | 1008.1 |
| 20260506013038 | 74 | 286 | 5.2 | 12.2 | 0.00 | 0.07 | 0.07 | 26 | 1008.0 |
| 20260506012524 | 74 | 307 | 4.3 | 12.2 | 0.00 | 0.07 | 0.07 | 27 | 1008.0 |
| 20260506012028 | 74 | 276 | 4.3 | 12.2 | 0.00 | 0.07 | 0.07 | 27 | 1008.0 |
| 20260506011544 | 74 | 309 | 5.2 | 13.0 | 0.00 | 0.07 | 0.07 | 27 | 1008.0 |
| 20260506011025 | 74 | 323 | 6.1 | 13.0 | 0.00 | 0.07 | 0.07 | 27 | 1007.9 |
| 20260506010525 | 74 | 342 | 1.7 | 10.4 | 0.00 | 0.07 | 0.07 | 28 | 1007.9 |
| 20260506010041 | 74 | 286 | 5.2 | 12.2 | 0.00 | 0.07 | 0.07 | 27 | 1007.9 |
| 20260506005525 | 74 | 319 | 5.2 | 12.2 | 0.00 | 0.07 | 0.07 | 27 | 1007.9 |
| 20260506005024 | 74 | 270 | 4.3 | 11.3 | 0.00 | 0.07 | 0.07 | 27 | 1007.7 |
| 20260506004540 | 75 | 317 | 6.1 | 11.3 | 0.00 | 0.07 | 0.07 | 27 | 1007.7 |
| 20260506004028 | 75 | 240 | 4.3 | 11.3 | 0.00 | 0.07 | 0.07 | 27 | 1007.7 |
| 20260506003526 | 75 | 290 | 6.1 | 11.3 | 0.00 | 0.07 | 0.07 | 27 | 1007.7 |
| 20260506003040 | 76 | 275 | 4.3 | 11.3 | 0.00 | 0.07 | 0.07 | 26 | 1007.7 |
| 20260506002525 | 76 | 268 | 4.3 | 11.3 | 0.00 | 0.07 | 0.07 | 27 | 1007.7 |
| 20260506002025 | 76 | 264 | 4.3 | 13.9 | 0.00 | 0.07 | 0.07 | 27 | 1007.6 |
| 20260506001549 | 75 | 304 | 5.2 | 13.9 | 0.00 | 0.07 | 0.07 | 27 | 1007.6 |
| 20260506001024 | 75 | 304 | 7.8 | 14.8 | 0.00 | 0.07 | 0.07 | 27 | 1007.6 |
| 20260506000525 | 75 | 302 | 5.2 | 14.8 | 0.00 | 0.07 | 0.07 | 27 | 1007.5 |
| 20260506000042 | 76 | 305 | 6.1 | 14.8 | 0.00 | 0.07 | 0.07 | 26 | 1007.5 |
| 20260505235525 | 76 | 270 | 4.3 | 13.0 | 0.00 | 0.07 | 0.07 | 26 | 1007.4 |
| 20260505235025 | 76 | 277 | 7.0 | 13.9 | 0.00 | 0.07 | 0.07 | 27 | 1007.6 |
| 20260505234544 | 76 | 294 | 6.1 | 13.9 | 0.00 | 0.07 | 0.07 | 27 | 1007.4 |
| 20260505234025 | 76 | 290 | 7.8 | 13.0 | 0.00 | 0.07 | 0.07 | 26 | 1007.4 |
| 20260505233525 | 76 | 292 | 3.5 | 14.8 | 0.00 | 0.07 | 0.07 | 27 | 1007.3 |
| 20260505233038 | 77 | 305 | 5.2 | 14.8 | 0.00 | 0.07 | 0.07 | 27 | 1007.4 |
| 20260505232524 | 77 | 258 | 7.0 | 14.8 | 0.00 | 0.07 | 0.07 | 27 | 1007.4 |
| 20260505232024 | 77 | 300 | 4.3 | 14.8 | 0.00 | 0.07 | 0.07 | 26 | 1007.3 |
| 20260505231550 | 77 | 234 | 5.2 | 14.8 | 0.00 | 0.07 | 0.07 | 27 | 1007.3 |
| 20260505231025 | 77 | 261 | 7.0 | 14.8 | 0.00 | 0.07 | 0.07 | 27 | 1007.4 |
| 20260505230525 | 77 | 346 | 6.1 | 13.9 | 0.00 | 0.07 | 0.07 | 26 | 1007.3 |
| 20260505230054 | 77 | 286 | 6.1 | 13.9 | 0.00 | 0.07 | 0.07 | 27 | 1007.4 |
| 20260505225526 | 76 | 235 | 4.3 | 13.9 | 0.00 | 0.07 | 0.07 | 27 | 1007.3 |
| 20260505225025 | 77 | 321 | 5.2 | 13.9 | 0.00 | 0.07 | 0.07 | 27 | 1007.5 |
| 20260505224540 | 78 | 257 | 5.2 | 13.0 | 0.00 | 0.07 | 0.07 | 28 | 1007.6 |
| 20260505224025 | 78 | 232 | 5.2 | 12.2 | 0.00 | 0.07 | 0.07 | 27 | 1007.4 |
| 20260505223524 | 78 | 299 | 6.1 | 12.2 | 0.00 | 0.07 | 0.07 | 27 | 1007.6 |
| 20260505223039 | 78 | 261 | 2.6 | 13.9 | 0.00 | 0.07 | 0.07 | 26 | 1007.5 |
| 20260505222525 | 78 | 321 | 6.1 | 13.9 | 0.00 | 0.07 | 0.07 | 27 | 1007.7 |
| 20260505222025 | 78 | 246 | 4.3 | 13.0 | 0.00 | 0.07 | 0.07 | 28 | 1007.7 |
| 20260505221539 | 77 | 265 | 4.3 | 12.2 | 0.00 | 0.07 | 0.07 | 27 | 1007.7 |
| 20260505221030 | 78 | 290 | 7.0 | 12.2 | 0.00 | 0.07 | 0.07 | 27 | 1008.0 |
| 20260505220524 | 78 | 288 | 2.6 | 15.6 | 0.00 | 0.07 | 0.07 | 28 | 1007.8 |
| 20260505220046 | 78 | 244 | 6.1 | 15.6 | 0.00 | 0.07 | 0.07 | 27 | 1008.0 |
| 20260505215529 | 78 | 287 | 5.2 | 13.9 | 0.00 | 0.07 | 0.07 | 28 | 1008.0 |
| 20260505215025 | 78 | 268 | 5.2 | 13.9 | 0.00 | 0.07 | 0.07 | 27 | 1007.9 |
| 20260505214544 | 78 | 257 | 5.2 | 13.9 | 0.00 | 0.07 | 0.07 | 28 | 1008.1 |
| 20260505214025 | 78 | 288 | 5.2 | 16.5 | 0.00 | 0.07 | 0.07 | 29 | 1008.1 |
| 20260505213524 | 78 | 231 | 7.0 | 16.5 | 0.00 | 0.07 | 0.07 | 29 | 1008.2 |
| 20260505213051 | 77 | 242 | 2.6 | 13.9 | 0.00 | 0.07 | 0.07 | 31 | 1008.1 |
| 20260505212529 | 77 | 316 | 4.3 | 13.9 | 0.00 | 0.07 | 0.07 | 30 | 1008.2 |
| 20260505212025 | 76 | 244 | 3.5 | 14.8 | 0.00 | 0.07 | 0.07 | 31 | 1008.2 |
| 20260505211539 | 76 | 228 | 4.3 | 14.8 | 0.00 | 0.07 | 0.07 | 31 | 1008.5 |
| 20260505211025 | 77 | 205 | 5.2 | 12.2 | 0.00 | 0.07 | 0.07 | 31 | 1008.5 |
| 20260505210524 | 77 | 266 | 4.3 | 12.2 | 0.00 | 0.07 | 0.07 | 32 | 1008.6 |
| 20260505210038 | 76 | 265 | 6.1 | 12.2 | 0.00 | 0.07 | 0.07 | 33 | 1008.6 |
| 20260505205525 | 76 | 306 | 4.3 | 10.4 | 0.00 | 0.07 | 0.07 | 33 | 1008.6 |
| 20260505205028 | 76 | 278 | 1.7 | 12.2 | 0.00 | 0.07 | 0.07 | 34 | 1008.6 |
| 20260505204539 | 76 | 270 | 3.5 | 13.0 | 0.00 | 0.07 | 0.07 | 34 | 1008.7 |
| 20260505204024 | 76 | 284 | 7.0 | 13.0 | 0.00 | 0.07 | 0.07 | 33 | 1008.8 |
| 20260505203526 | 76 | 223 | 5.2 | 13.0 | 0.00 | 0.07 | 0.07 | 34 | 1008.8 |
| 20260505203042 | 76 | 324 | 7.0 | 13.0 | 0.00 | 0.07 | 0.07 | 33 | 1008.8 |
| 20260505202524 | 76 | 261 | 4.3 | 12.2 | 0.00 | 0.07 | 0.07 | 34 | 1008.8 |
| 20260505202023 | 76 | 241 | 5.2 | 12.2 | 0.00 | 0.07 | 0.07 | 36 | 1008.8 |
| 20260505201543 | 75 | 317 | 5.2 | 12.2 | 0.00 | 0.07 | 0.07 | 38 | 1008.8 |
| 20260505201025 | 75 | 304 | 5.2 | 13.0 | 0.00 | 0.07 | 0.07 | 38 | 1008.8 |
| 20260505200527 | 75 | 296 | 5.2 | 13.0 | 0.00 | 0.07 | 0.07 | 38 | 1009.0 |
| 20260505200043 | 75 | 296 | 3.5 | 12.2 | 0.00 | 0.07 | 0.07 | 39 | 1008.9 |
| 20260505195528 | 75 | 262 | 2.6 | 11.3 | 0.00 | 0.07 | 0.07 | 39 | 1009.0 |
| 20260505195024 | 75 | 302 | 6.1 | 13.0 | 0.00 | 0.07 | 0.07 | 39 | 1009.1 |
| 20260505194539 | 75 | 247 | 3.5 | 13.0 | 0.00 | 0.07 | 0.07 | 40 | 1009.1 |
| 20260505194025 | 74 | 261 | 3.5 | 9.6 | 0.00 | 0.07 | 0.07 | 41 | 1009.1 |
| 20260505193525 | 74 | 223 | 3.5 | 11.3 | 0.00 | 0.07 | 0.07 | 40 | 1009.1 |
| 20260505193039 | 74 | 255 | 5.2 | 13.0 | 0.00 | 0.07 | 0.07 | 40 | 1009.2 |
| 20260505192528 | 73 | 272 | 7.0 | 13.0 | 0.00 | 0.07 | 0.07 | 41 | 1009.3 |
| 20260505192025 | 73 | 240 | 2.6 | 9.6 | 0.00 | 0.07 | 0.07 | 41 | 1009.4 |